Weather in Urusovo

Russia / Lipetsk Oblast     53°30′55″N   39°35′54″E
temp.,
°C
wind,
m/s
gust,
m/s
humid.,
%
clouds,
%
prec.,
mm/h
press.,
hPa
HPBL,
m
14 june, mon
mon1400:00+17s2283100 0.0 101011
03:00+15s228926 0.1 101118
06:00+17s238832 0.0 101399
09:00+21s227328 0.0 1014530
12:00+24s116250 0.1 10141141
15:00+25se115937 1.1 10141367
18:00+24ne227451 0.7 1014149
21:00+19ne11847 1.2 101411
15 june, tue
tue1500:00+18ne118661 0.3 101411
03:00+17nne1189100 0.4 101411
06:00+18e1288100 0.0 101467
09:00+22e227798 0.1 1013456
12:00+24ene22655 0.4 10121180
15:00+25ne225919 0.6 10111536
18:00+24ene1274100 1.7 1010225
21:00+19sse1182100 2.7 101011
16 june, wed
wed1600:00+18w228742 0.7 101014
03:00+17nw22915 0.7 100914
06:00+18nnw239014 0.0 100992
09:00+22nnw227611 0.3 1009429
12:00+24nw346692 2.8 10101069
15:00+23nnw667283 3.0 1011940
18:00+22n58785 0.3 1013935
21:00+18n410910 0.4 1015228
17 june, thu
thu1700:00+16n511850 0.0 1017302
03:00+14nne512780 0.0 1019268
06:00+13nne410810 0.0 1021265
09:00+18ne58680 0.0 1021526
12:00+21nne67570 0.0 10231225
15:00+21nne67550 0.0 10231409
18:00+20nne48670 0.0 1023649
21:00+15nne47840 0.0 1024108
18 june, fri
fri1800:00+13ne35925 0.0 102567
03:00+12ne48825 0.0 1026139
06:00+13ne368474 0.0 1027163
09:00+18ene456912 0.0 1027473
12:00+21ene45570 0.0 10271249
15:00+22ene45540 0.0 10271547
18:00+22e35665 0.0 1027745
21:00+17ene22795 0.0 102711